Everett, WA
on Saturday, November 17, 2012

Saturday
Previous Day Next Day
Daily Summary
 ActualAverageRecord
Temperature
Mean Temperature °F / °C °F / °C  
Max Temperature 55°F / 13°C 49°F / 9°C 66°F / 18°C (1965)
Min Temperature 42°F / 6°C 37°F / 2°C 19°F / -7°C (1955)
Degree Days
Heating Degree Days 16    
Moisture
Dew Point 40°F / 4°C   
Average Humidity 78    
Maximum Humidity 89    
Minimum Humidity 55    
Precipitation
Precipitation 0.23 in / 5.84 cm in / cm in / cm ()
Wind
Wind Speed 12 mph / 19 km/h   
Max Wind Speed 23 mph / 37 km/h   
Max Gust Speed 28 mph / 45 km/h   
Visibility 9 miles / 14 kilometers   
Events Rain   
Averages and records for this station are not official NWS values.
Key: T is trace of precipitation, MM is missing value
Source: NWS Daily Summary
Seasonal Weather Averages
Time(PST)TemperatureDew PointHumidity Pressure Visibility Wind DirectionWind SpeedGust SpeedPrecipitationEvents Conditions
12:53 AM 46.9°F / 8.3°C 42.1°F / 5.6°C 83% 29.68 in / 1005.0 hPa 8.0 miles / 12.9 kilometers ESE 11.5 mph / 18.5 km/h 18.4 mph / 29.6 km/h 0.03 in / 0.8 cm Rain Light Rain
1:53 AM 46.9°F / 8.3°C 43.0°F / 6.1°C 86% 29.66 in / 1004.2 hPa 5.0 miles / 8.0 kilometers SE 5.8 mph / 9.3 km/h 16.1 mph / 25.9 km/h 0.04 in / 1.0 cm Rain Rain
2:53 AM 46.9°F / 8.3°C 42.1°F / 5.6°C 83% 29.62 in / 1003.0 hPa 10.0 miles / 16.1 kilometers ESE 12.7 mph / 20.4 km/h - 0.02 in / 0.5 cm Rain Light Rain
3:53 AM 46.9°F / 8.3°C 42.1°F / 5.6°C 83% 29.60 in / 1002.4 hPa 8.0 miles / 12.9 kilometers Variable 5.8 mph / 9.3 km/h - 0.01 in / 0.3 cm Rain Light Rain
4:53 AM 48.9°F / 9.4°C 39.9°F / 4.4°C 71% 29.58 in / 1001.5 hPa 10.0 miles / 16.1 kilometers Variable 6.9 mph / 11.1 km/h 16.1 mph / 25.9 km/h 0.00 in / 0.0 cm   Overcast
5:53 AM 50.0°F / 10.0°C 39.9°F / 4.4°C 68% 29.55 in / 1000.6 hPa 10.0 miles / 16.1 kilometers Variable 5.8 mph / 9.3 km/h - 0.00 in / 0.0 cm   Overcast
6:53 AM 50.0°F / 10.0°C 41.0°F / 5.0°C 71% 29.55 in / 1000.6 hPa 10.0 miles / 16.1 kilometers SSE 10.4 mph / 16.7 km/h - N/A   Overcast
7:53 AM 53.1°F / 11.7°C 39.0°F / 3.9°C 59% 29.53 in / 1000.0 hPa 10.0 miles / 16.1 kilometers SSE 11.5 mph / 18.5 km/h 18.4 mph / 29.6 km/h 0.00 in / 0.0 cm   Scattered Clouds
8:53 AM 53.1°F / 11.7°C 39.0°F / 3.9°C 59% 29.50 in / 999.0 hPa 10.0 miles / 16.1 kilometers SE 9.2 mph / 14.8 km/h - N/A   Scattered Clouds
9:53 AM 53.1°F / 11.7°C 39.0°F / 3.9°C 59% 29.49 in / 998.4 hPa 10.0 miles / 16.1 kilometers SE 9.2 mph / 14.8 km/h 17.3 mph / 27.8 km/h N/A   Mostly Cloudy
10:53 AM 55.0°F / 12.8°C 39.0°F / 3.9°C 55% 29.48 in / 998.2 hPa 10.0 miles / 16.1 kilometers SSE 18.4 mph / 29.6 km/h 26.5 mph / 42.6 km/h N/A   Overcast
11:53 AM 55.0°F / 12.8°C 39.0°F / 3.9°C 55% 29.46 in / 997.6 hPa 10.0 miles / 16.1 kilometers SSE 10.4 mph / 16.7 km/h 20.7 mph / 33.3 km/h 0.00 in / 0.0 cm   Overcast
12:15 PM 51.8°F / 11.0°C 42.8°F / 6.0°C 71% 29.48 in / 998.2 hPa 10.0 miles / 16.1 kilometers SSW 15.0 mph / 24.1 km/h - N/A   Overcast
12:53 PM 48.9°F / 9.4°C 45.0°F / 7.2°C 86% 29.50 in / 998.9 hPa 10.0 miles / 16.1 kilometers South 16.1 mph / 25.9 km/h - 0.00 in / 0.0 cm   Overcast
1:53 PM 48.0°F / 8.9°C 41.0°F / 5.0°C 77% 29.53 in / 999.8 hPa 10.0 miles / 16.1 kilometers South 20.7 mph / 33.3 km/h - 0.02 in / 0.5 cm Rain Light Rain
2:49 PM 44.6°F / 7.0°C 41.0°F / 5.0°C 87% 29.54 in / 1000.2 hPa 3.0 miles / 4.8 kilometers South 23.0 mph / 37.0 km/h 27.6 mph / 44.4 km/h 0.05 in / 1.3 cm Rain Light Rain
2:53 PM 45.0°F / 7.2°C 41.0°F / 5.0°C 86% 29.55 in / 1000.7 hPa 3.0 miles / 4.8 kilometers South 20.7 mph / 33.3 km/h 27.6 mph / 44.4 km/h 0.06 in / 1.5 cm Rain Light Rain
2:55 PM 44.6°F / 7.0°C 41.0°F / 5.0°C 87% 29.54 in / 1000.2 hPa 2.5 miles / 4.0 kilometers South 20.7 mph / 33.3 km/h - 0.00 in / 0.0 cm Rain Light Rain
3:53 PM 44.1°F / 6.7°C 41.0°F / 5.0°C 89% 29.58 in / 1001.6 hPa 2.5 miles / 4.0 kilometers South 15.0 mph / 24.1 km/h 24.2 mph / 38.9 km/h 0.04 in / 1.0 cm Rain Light Rain
3:58 PM 44.6°F / 7.0°C 41.0°F / 5.0°C 87% 29.57 in / 1001.2 hPa 8.0 miles / 12.9 kilometers South 15.0 mph / 24.1 km/h 24.2 mph / 38.9 km/h 0.00 in / 0.0 cm Rain Light Rain
4:05 PM 44.6°F / 7.0°C 41.0°F / 5.0°C 87% 29.58 in / 1001.6 hPa 10.0 miles / 16.1 kilometers South 16.1 mph / 25.9 km/h 21.9 mph / 35.2 km/h 0.00 in / 0.0 cm Rain Light Rain
4:53 PM 44.1°F / 6.7°C 39.9°F / 4.4°C 85% 29.60 in / 1002.1 hPa 10.0 miles / 16.1 kilometers South 20.7 mph / 33.3 km/h 26.5 mph / 42.6 km/h 0.01 in / 0.3 cm   Mostly Cloudy
5:53 PM 44.1°F / 6.7°C 39.9°F / 4.4°C 85% 29.62 in / 1003.0 hPa 10.0 miles / 16.1 kilometers South 17.3 mph / 27.8 km/h 25.3 mph / 40.7 km/h N/A   Mostly Cloudy
6:00 PM 42.8°F / 6.0°C 39.2°F / 4.0°C 87% 29.62 in / 1002.9 hPa 10.0 miles / 16.1 kilometers SSE 17.3 mph / 27.8 km/h 25.3 mph / 40.7 km/h N/A   Overcast
6:53 PM 43.0°F / 6.1°C 39.0°F / 3.9°C 86% 29.63 in / 1003.2 hPa 10.0 miles / 16.1 kilometers SSE 11.5 mph / 18.5 km/h 19.6 mph / 31.5 km/h N/A   Overcast
7:53 PM 43.0°F / 6.1°C 39.0°F / 3.9°C 86% 29.64 in / 1003.6 hPa 10.0 miles / 16.1 kilometers SSE 12.7 mph / 20.4 km/h - N/A   Overcast
8:00 PM 44.6°F / 7.0°C 39.2°F / 4.0°C 81% 29.64 in / 1003.6 hPa 10.0 miles / 16.1 kilometers SSE 12.7 mph / 20.4 km/h - N/A   Clear
8:53 PM 44.1°F / 6.7°C 37.9°F / 3.3°C 79% 29.65 in / 1003.9 hPa 10.0 miles / 16.1 kilometers SSE 15.0 mph / 24.1 km/h 25.3 mph / 40.7 km/h N/A   Overcast
9:09 PM 44.6°F / 7.0°C 39.2°F / 4.0°C 81% 29.65 in / 1003.9 hPa 10.0 miles / 16.1 kilometers South 11.5 mph / 18.5 km/h - 0.00 in / 0.0 cm Rain Light Rain
9:53 PM 44.1°F / 6.7°C 39.0°F / 3.9°C 82% 29.66 in / 1004.2 hPa 10.0 miles / 16.1 kilometers SSE 11.5 mph / 18.5 km/h - 0.00 in / 0.0 cm   Overcast
10:53 PM 44.1°F / 6.7°C 39.0°F / 3.9°C 82% 29.68 in / 1004.8 hPa 10.0 miles / 16.1 kilometers South 16.1 mph / 25.9 km/h - N/A   Overcast
11:53 PM 44.1°F / 6.7°C 37.9°F / 3.3°C 79% 29.70 in / 1005.6 hPa 10.0 miles / 16.1 kilometers South 13.8 mph / 22.2 km/h - N/A   Mostly Cloudy
Moon Phase
Nov. 17 Nov. 20 Nov. 28 Dec. 06 Dec. 13
Sunrise:07:19 AM (PST) Moon Rise:11:07 AM (PST)11/17
Sunset:04:28 PM (PST) Moon Set:08:46 PM (PST)11/17

Copyright © 2014 The Weather Underground, Inc.